• In Germany
  • List of Countries
  • For 7 days
  • Water Temperature
  • Satellite Maps
  • Weather Map
  • Weather Widgets
  • user-avatar
    Login

    Hourly Weather Leticia

    Today, 26 September, Tuesday

    Time Temperature Precipitation Wind Pressure Humidity
    00:00 +23°C° 0.1 mm 0 mps 751 mmHg 94%
    01:00 +22°C° 0.1 mm 0 mps 751 mmHg 95%
    02:00 +22°C° 0.2 mm 0 mps 751 mmHg 96%
    03:00 +22°C° 0.2 mm 0 mps 751 mmHg 97%
    04:00 +22°C° 0.2 mm 0 mps 751 mmHg 97%
    05:00 +23°C° 0.1 mm 0 mps 751 mmHg 95%
    06:00 +24°C° 0.1 mm 0 mps 752 mmHg 92%
    07:00 +24°C° 0.1 mm 0 mps 752 mmHg 90%
    08:00 +26°C° 1 mm 0 mps 752 mmHg 87%
    09:00 +27°C° 1 mm 0 mps 752 mmHg 83%
    10:00 +29°C° 1 mm 0 mps 752 mmHg 80%
    11:00 +29°C° 2.7 mm 0 mps 752 mmHg 81%
    12:00 +29°C° 2.7 mm 0 mps 751 mmHg 81%
    13:00 +29°C° 2.7 mm 0 mps 750 mmHg 82%
    14:00 +28°C° 0.7 mm 0 mps 750 mmHg 82%
    15:00 +28°C° 0.7 mm 0 mps 750 mmHg 82%
    16:00 +27°C° 0.7 mm 0 mps 749 mmHg 82%
    17:00 +26°C° 0 mm 0 mps 749 mmHg 85%
    18:00 +25°C° 0 mm 0 mps 750 mmHg 89%
    19:00 +24°C° 0 mm 0 mps 750 mmHg 92%
    20:00 +24°C° 0 mm 0 mps 750 mmHg 92%
    21:00 +23°C° 0 mm 0 mps 750 mmHg 92%
    22:00 +23°C° 0 mm 0 mps 750 mmHg 92%
    23:00 +23°C° 0 mm 0 mps 750 mmHg 92%

    Tomorrow, 27 September, Wednesday

    Time Temperature Precipitation Wind Pressure Humidity
    00:00 +23°C° 0 mm 0 mps 750 mmHg 92%
    01:00 +23°C° 0 mm 0 mps 749 mmHg 91%
    02:00 +22°C° 0 mm 0 mps 749 mmHg 91%
    03:00 +22°C° 0 mm 0 mps 749 mmHg 91%
    04:00 +22°C° 0 mm 0 mps 749 mmHg 92%
    05:00 +23°C° 0 mm 0 mps 750 mmHg 88%
    06:00 +24°C° 0 mm 0 mps 750 mmHg 85%
    07:00 +25°C° 0 mm 0 mps 751 mmHg 82%
    08:00 +28°C° 0 mm 0 mps 751 mmHg 71%
    09:00 +31°C° 0 mm 0 mps 751 mmHg 59%
    10:00 +35°C° 0 mm 1 mps 752 mmHg 48%
    11:00 +36°C° 0 mm 1 mps 750 mmHg 46%
    12:00 +37°C° 0 mm 1 mps 749 mmHg 44%
    13:00 +36°C° 0 mm 0 mps 748 mmHg 41%
    14:00 +34°C° 0 mm 0 mps 748 mmHg 46%
    15:00 +33°C° 0 mm 0 mps 748 mmHg 52%
    16:00 +32°C° 0 mm 0 mps 748 mmHg 57%
    17:00 +30°C° 0 mm 0 mps 748 mmHg 61%
    18:00 +29°C° 0 mm 0 mps 748 mmHg 66%
    19:00 +27°C° 0 mm 0 mps 749 mmHg 71%
    20:00 +26°C° 0 mm 0 mps 749 mmHg 73%
    21:00 +26°C° 0 mm 0 mps 749 mmHg 76%
    22:00 +25°C° 0 mm 0 mps 749 mmHg 79%
    23:00 +25°C° 0 mm 0 mps 749 mmHg 82%

    Day after tomorrow, 28 September, Thursday

    Time Temperature Precipitation Wind Pressure Humidity
    00:00 +24°C° 0 mm 0 mps 749 mmHg 85%
    01:00 +24°C° 0 mm 0 mps 749 mmHg 88%
    02:00 +23°C° 0.8 mm 0 mps 749 mmHg 90%
    03:00 +23°C° 0.8 mm 0 mps 749 mmHg 92%
    04:00 +23°C° 0.8 mm 0 mps 749 mmHg 94%
    05:00 +24°C° 0.3 mm 0 mps 750 mmHg 93%
    06:00 +24°C° 0.3 mm 0 mps 750 mmHg 92%
    07:00 +25°C° 0.3 mm 0 mps 751 mmHg 91%
    08:00 +26°C° 1.3 mm 0 mps 751 mmHg 88%
    09:00 +28°C° 1.3 mm 0 mps 751 mmHg 84%
    10:00 +30°C° 1.3 mm 0 mps 751 mmHg 80%
    11:00 +32°C° 0.5 mm 0 mps 751 mmHg 69%
    12:00 +34°C° 0.5 mm 0 mps 750 mmHg 57%
    13:00 +36°C° 0.5 mm 0 mps 749 mmHg 46%
    14:00 +34°C° 0 mm 0 mps 749 mmHg 51%
    15:00 +33°C° 0 mm 0 mps 748 mmHg 57%
    16:00 +31°C° 0 mm 0 mps 748 mmHg 63%
    17:00 +30°C° 0 mm 0 mps 748 mmHg 68%
    18:00 +28°C° 0 mm 0 mps 749 mmHg 73%
    19:00 +27°C° 0 mm 0 mps 749 mmHg 78%
    20:00 +26°C° 0.3 mm 0 mps 749 mmHg 82%
    21:00 +25°C° 0.3 mm 0 mps 749 mmHg 86%
    22:00 +25°C° 0.3 mm 0 mps 750 mmHg 89%
    23:00 +24°C° 0 mm 0 mps 749 mmHg 90%

    29 September, Friday

    Time Temperature Precipitation Wind Pressure Humidity
    00:00 +24°C° 0 mm 0 mps 749 mmHg 91%
    01:00 +24°C° 0 mm 0 mps 749 mmHg 92%
    02:00 +24°C° 0 mm 0 mps 749 mmHg 92%
    03:00 +24°C° 0 mm 0 mps 749 mmHg 93%
    04:00 +23°C° 0 mm 0 mps 749 mmHg 94%
    05:00 +24°C° 0 mm 0 mps 750 mmHg 91%
    06:00 +25°C° 0 mm 0 mps 750 mmHg 88%
    07:00 +26°C° 0 mm 0 mps 751 mmHg 85%
    08:00 +28°C° 0.4 mm 0 mps 751 mmHg 79%
    09:00 +30°C° 0.4 mm 0 mps 752 mmHg 74%
    10:00 +32°C° 0.4 mm 0 mps 752 mmHg 68%
    11:00 +32°C° 0.8 mm 0 mps 751 mmHg 65%
    12:00 +33°C° 0.8 mm 0 mps 750 mmHg 62%
    13:00 +34°C° 0.8 mm 0 mps 749 mmHg 58%
    14:00 +33°C° 0.3 mm 0 mps 748 mmHg 60%
    15:00 +32°C° 0.3 mm 0 mps 748 mmHg 62%
    16:00 +32°C° 0.3 mm 0 mps 748 mmHg 64%
    17:00 +30°C° 0.1 mm 0 mps 748 mmHg 70%
    18:00 +28°C° 0.1 mm 0 mps 749 mmHg 75%
    19:00 +27°C° 0.1 mm 0 mps 749 mmHg 81%
    20:00 +26°C° 0.1 mm 0 mps 749 mmHg 83%
    21:00 +26°C° 0.1 mm 0 mps 749 mmHg 85%
    22:00 +25°C° 0.1 mm 0 mps 749 mmHg 87%
    23:00 +25°C° 0 mm 0 mps 749 mmHg 88%

    30 September, Saturday

    Time Temperature Precipitation Wind Pressure Humidity
    00:00 +25°C° 0 mm 0 mps 749 mmHg 88%
    01:00 +24°C° 0 mm 0 mps 748 mmHg 89%
    02:00 +24°C° 0 mm 0 mps 748 mmHg 89%
    03:00 +24°C° 0 mm 0 mps 749 mmHg 89%
    04:00 +24°C° 0 mm 0 mps 749 mmHg 90%
    05:00 +26°C° 0.2 mm 1 mps 749 mmHg 89%
    06:00 +27°C° 0.2 mm 1 mps 750 mmHg 89%
    07:00 +27°C° 0.2 mm 1 mps 751 mmHg 89%
    08:00 +28°C° 1.2 mm 1 mps 751 mmHg 89%
    09:00 +29°C° 1.2 mm 1 mps 751 mmHg 89%
    10:00 +30°C° 1.2 mm 1 mps 751 mmHg 89%
    11:00 +31°C° 1 mm 1 mps 750 mmHg 81%
    12:00 +32°C° 1 mm 1 mps 749 mmHg 74%
    13:00 +33°C° 1 mm 1 mps 748 mmHg 66%
    14:00 +32°C° 0.2 mm 1 mps 748 mmHg 69%
    15:00 +32°C° 0.2 mm 1 mps 748 mmHg 71%
    16:00 +31°C° 0.2 mm 1 mps 748 mmHg 74%
    17:00 +30°C° 0.1 mm 1 mps 748 mmHg 80%
    18:00 +29°C° 0.1 mm 1 mps 748 mmHg 85%
    19:00 +27°C° 0.1 mm 1 mps 749 mmHg 91%
    20:00 +27°C° 0 mm 1 mps 749 mmHg 92%
    21:00 +27°C° 0 mm 1 mps 749 mmHg 92%
    22:00 +24°C° 0 mm 0 mps 749 mmHg 93%
    23:00 +24°C° 0.2 mm 0 mps 749 mmHg 93%

    1 October, Sunday

    Time Temperature Precipitation Wind Pressure Humidity
    00:00 +24°C° 0.2 mm 0 mps 748 mmHg 94%
    01:00 +24°C° 0.2 mm 0 mps 748 mmHg 94%
    02:00 +23°C° 0.5 mm 0 mps 748 mmHg 94%
    03:00 +23°C° 0.5 mm 0 mps 748 mmHg 95%
    04:00 +25°C° 0.5 mm 1 mps 748 mmHg 96%
    05:00 +24°C° 0 mm 0 mps 748 mmHg 94%
    06:00 +24°C° 0 mm 0 mps 749 mmHg 92%
    07:00 +25°C° 0 mm 0 mps 750 mmHg 91%
    08:00 +30°C° 0 mm 1 mps 749 mmHg 78%
    09:00 +32°C° 0 mm 1 mps 749 mmHg 66%
    10:00 +35°C° 0 mm 1 mps 749 mmHg 54%
    11:00 +35°C° 0 mm 1 mps 748 mmHg 51%
    12:00 +36°C° 0 mm 1 mps 747 mmHg 48%
    13:00 +37°C° 0 mm 1 mps 746 mmHg 45%
    14:00 +37°C° 0 mm 1 mps 746 mmHg 46%
    15:00 +36°C° 0 mm 1 mps 746 mmHg 46%
    16:00 +36°C° 0 mm 1 mps 745 mmHg 47%
    17:00 +34°C° 0 mm 1 mps 746 mmHg 54%
    18:00 +30°C° 0 mm 0 mps 746 mmHg 61%
    19:00 +28°C° 0 mm 0 mps 746 mmHg 68%
    20:00 +27°C° 0 mm 0 mps 747 mmHg 71%
    21:00 +29°C° 0 mm 1 mps 747 mmHg 73%
    22:00 +28°C° 0 mm 1 mps 747 mmHg 76%
    23:00 +28°C° 0 mm 1 mps 747 mmHg 78%
    Show more